Data No,UTC Date,UTC Time,Latitude,Longitude,Course(deg),Temp(degC),Sal(psu)
493,2024/2/1,8:12,42-36.77N,141-36.96E,208,4.072,
494,2024/2/1,8:13,42-36.53N,141-36.79E,207,3.904,
495,2024/2/1,8:14,42-36.27N,141-36.64E,196,3.97,
496,2024/2/1,8:15,42-36.00N,141-36.70E,158,4.085,
497,2024/2/1,8:16,42-35.74N,141-36.89E,152,4.164,
498,2024/2/1,8:17,42-35.49N,141-37.08E,152,4.232,
499,2024/2/1,8:18,42-35.21N,141-37.28E,152,4.297,
500,2024/2/1,8:19,42-34.93N,141-37.48E,152,4.489,
501,2024/2/1,8:20,42-34.64N,141-37.67E,152,4.606,
502,2024/2/1,8:21,42-34.35N,141-37.88E,152,4.689,
503,2024/2/1,8:22,42-34.05N,141-38.09E,152,4.853,
504,2024/2/1,8:23,42-33.77N,141-38.29E,152,5.448,
505,2024/2/1,8:24,42-33.46N,141-38.50E,152,5.553,
506,2024/2/1,8:25,42-33.16N,141-38.71E,152,5.487,
507,2024/2/1,8:26,42-32.87N,141-38.91E,153,5.386,
508,2024/2/1,8:27,42-32.57N,141-39.12E,153,5.28,
509,2024/2/1,8:28,42-32.27N,141-39.33E,152,5.201,
510,2024/2/1,8:29,42-31.97N,141-39.54E,153,5.157,
511,2024/2/1,8:30,42-31.68N,141-39.74E,152,5.245,
512,2024/2/1,8:31,42-31.36N,141-39.96E,152,5.395,
513,2024/2/1,8:32,42-31.07N,141-40.16E,153,5.492,
514,2024/2/1,8:33,42-30.77N,141-40.37E,153,5.588,
515,2024/2/1,8:34,42-30.47N,141-40.58E,152,5.665,
516,2024/2/1,8:35,42-30.17N,141-40.78E,153,5.773,
517,2024/2/1,8:36,42-29.86N,141-41.07E,140,5.909,
518,2024/2/1,8:37,42-29.69N,141-41.42E,120,5.96,
519,2024/2/1,8:38,42-29.55N,141-41.75E,120,6.011,
520,2024/2/1,8:39,42-29.37N,141-42.17E,119,6.005,
521,2024/2/1,8:40,42-29.21N,141-42.52E,120,5.975,
522,2024/2/1,8:41,42-29.02N,141-42.98E,119,5.99,
523,2024/2/1,8:42,42-28.85N,141-43.36E,120,6.022,
524,2024/2/1,8:43,42-28.70N,141-43.70E,120,5.993,
525,2024/2/1,8:44,42-28.53N,141-44.10E,120,5.412,
526,2024/2/1,8:45,42-28.36N,141-44.49E,120,5.247,
527,2024/2/1,8:46,42-28.18N,141-44.88E,121,5.298,
528,2024/2/1,8:47,42-28.01N,141-45.26E,120,5.414,
529,2024/2/1,8:48,42-27.84N,141-45.66E,121,5.365,
530,2024/2/1,8:49,42-27.66N,141-46.05E,120,5.319,
531,2024/2/1,8:50,42-27.48N,141-46.46E,121,5.326,
532,2024/2/1,8:51,42-27.32N,141-46.82E,120,5.325,
533,2024/2/1,8:52,42-27.14N,141-47.21E,120,5.307,
534,2024/2/1,8:53,42-26.96N,141-47.60E,122,5.367,
535,2024/2/1,8:54,42-26.79N,141-47.99E,121,5.422,
536,2024/2/1,8:55,42-26.61N,141-48.38E,121,5.472,
537,2024/2/1,8:56,42-26.43N,141-48.76E,121,5.516,
538,2024/2/1,8:57,42-26.25N,141-49.15E,121,5.613,
539,2024/2/1,8:58,42-26.07N,141-49.55E,121,5.695,
540,2024/2/1,8:59,42-25.89N,141-49.92E,121,5.724,
541,2024/2/1,9:00,42-25.71N,141-50.32E,121,5.765,
542,2024/2/1,9:01,42-25.54N,141-50.70E,122,5.855,
543,2024/2/1,9:02,42-25.36N,141-51.09E,121,5.687,
544,2024/2/1,9:03,42-25.18N,141-51.48E,121,5.495,
545,2024/2/1,9:04,42-25.00N,141-51.85E,122,5.378,
546,2024/2/1,9:05,42-24.82N,141-52.24E,122,5.285,
547,2024/2/1,9:06,42-24.64N,141-52.62E,121,5.169,
548,2024/2/1,9:07,42-24.46N,141-53.02E,122,5.046,
549,2024/2/1,9:08,42-24.28N,141-53.40E,122,4.966,
550,2024/2/1,9:09,42-24.10N,141-53.77E,123,4.902,
551,2024/2/1,9:10,42-23.91N,141-54.16E,122,4.93,
552,2024/2/1,9:11,42-23.74N,141-54.54E,121,5.006,
553,2024/2/1,9:12,42-23.56N,141-54.92E,122,5.034,
554,2024/2/1,9:13,42-23.38N,141-55.31E,121,5.026,
555,2024/2/1,9:14,42-23.21N,141-55.68E,121,5.057,
556,2024/2/1,9:15,42-23.03N,141-56.07E,122,5.102,
557,2024/2/1,9:16,42-22.86N,141-56.45E,121,5.098,
558,2024/2/1,9:17,42-22.69N,141-56.81E,122,5.089,
559,2024/2/1,9:18,42-22.51N,141-57.20E,121,5.048,
560,2024/2/1,9:19,42-22.34N,141-57.57E,121,5.045,
561,2024/2/1,9:20,42-22.16N,141-57.96E,121,5.029,
562,2024/2/1,9:21,42-21.99N,141-58.33E,123,5.034,
563,2024/2/1,9:22,42-21.81N,141-58.69E,123,5.008,
564,2024/2/1,9:23,42-21.63N,141-59.07E,122,4.999,
565,2024/2/1,9:24,42-21.46N,141-59.45E,120,4.982,
566,2024/2/1,9:25,42-21.29N,141-59.84E,121,4.993,
567,2024/2/1,9:26,42-21.11N,142-00.22E,121,4.941,
568,2024/2/1,9:27,42-20.94N,142-00.59E,122,4.907,
569,2024/2/1,9:28,42-20.76N,142-00.98E,121,4.838,
570,2024/2/1,9:29,42-20.58N,142-01.37E,122,4.8,
571,2024/2/1,9:30,42-20.40N,142-01.76E,121,4.718,
572,2024/2/1,9:31,42-20.23N,142-02.12E,121,4.675,
573,2024/2/1,9:32,42-20.06N,142-02.51E,122,4.643,
574,2024/2/1,9:33,42-19.88N,142-02.90E,121,4.71,
575,2024/2/1,9:34,42-19.70N,142-03.27E,121,4.753,
576,2024/2/1,9:35,42-19.52N,142-03.66E,121,4.771,
577,2024/2/1,9:36,42-19.35N,142-04.04E,122,4.769,
578,2024/2/1,9:37,42-19.17N,142-04.43E,122,4.742,
579,2024/2/1,9:38,42-18.98N,142-04.83E,122,4.723,
580,2024/2/1,9:39,42-18.81N,142-05.19E,124,4.698,
581,2024/2/1,9:40,42-18.63N,142-05.57E,121,4.642,
582,2024/2/1,9:41,42-18.45N,142-05.95E,122,4.607,
583,2024/2/1,9:42,42-18.27N,142-06.33E,122,4.519,
584,2024/2/1,9:43,42-18.10N,142-06.72E,121,4.37,
585,2024/2/1,9:44,42-17.93N,142-07.11E,121,4.281,
586,2024/2/1,9:45,42-17.76N,142-07.48E,122,4.246,
587,2024/2/1,9:46,42-17.58N,142-07.85E,121,4.21,
588,2024/2/1,9:47,42-17.40N,142-08.24E,122,4.149,
589,2024/2/1,9:48,42-17.23N,142-08.61E,122,4.096,
590,2024/2/1,9:49,42-17.05N,142-08.98E,122,4.02,
591,2024/2/1,9:50,42-16.87N,142-09.37E,122,3.972,
592,2024/2/1,9:51,42-16.69N,142-09.74E,122,3.945,
593,2024/2/1,9:52,42-16.51N,142-10.12E,123,3.935,
594,2024/2/1,9:53,42-16.32N,142-10.49E,124,3.951,
595,2024/2/1,9:54,42-16.14N,142-10.87E,123,3.97,
596,2024/2/1,9:55,42-15.97N,142-11.23E,121,3.96,
597,2024/2/1,9:56,42-15.79N,142-11.61E,122,3.962,
598,2024/2/1,9:57,42-15.61N,142-11.99E,122,3.944,
599,2024/2/1,9:58,42-15.43N,142-12.36E,123,3.938,
600,2024/2/1,9:59,42-15.25N,142-12.73E,123,3.93,
601,2024/2/1,10:00,42-15.07N,142-13.11E,122,3.928,
602,2024/2/1,10:01,42-14.90N,142-13.48E,122,3.952,
603,2024/2/1,10:02,42-14.71N,142-13.86E,122,3.974,
604,2024/2/1,10:03,42-14.53N,142-14.24E,123,3.989,
605,2024/2/1,10:04,42-14.35N,142-14.60E,123,4.017,
606,2024/2/1,10:05,42-14.17N,142-14.98E,122,4.038,
607,2024/2/1,10:06,42-14.00N,142-15.35E,123,4.1,
608,2024/2/1,10:07,42-13.82N,142-15.72E,122,4.144,
609,2024/2/1,10:08,42-13.64N,142-16.11E,123,4.139,
610,2024/2/1,10:09,42-13.47N,142-16.48E,121,4.151,
611,2024/2/1,10:10,42-13.28N,142-16.86E,124,4.2,
612,2024/2/1,10:11,42-13.10N,142-17.24E,121,4.278,
613,2024/2/1,10:12,42-12.92N,142-17.60E,124,4.311,
614,2024/2/1,10:13,42-12.73N,142-17.98E,122,4.357,
615,2024/2/1,10:14,42-12.56N,142-18.35E,122,4.365,
616,2024/2/1,10:15,42-12.38N,142-18.73E,122,4.247,
617,2024/2/1,10:16,42-12.20N,142-19.11E,123,4.069,
618,2024/2/1,10:17,42-12.01N,142-19.52E,123,3.832,
619,2024/2/1,10:18,42-11.85N,142-19.86E,123,3.693,
620,2024/2/1,10:19,42-11.67N,142-20.23E,122,3.583,
621,2024/2/1,10:20,42-11.48N,142-20.62E,123,3.487,
622,2024/2/1,10:21,42-11.30N,142-21.00E,122,3.409,
623,2024/2/1,10:22,42-11.12N,142-21.37E,123,3.362,
624,2024/2/1,10:23,42-10.94N,142-21.76E,122,3.344,
625,2024/2/1,10:24,42-10.77N,142-22.13E,121,3.321,
626,2024/2/1,10:25,42-10.58N,142-22.50E,123,3.293,
627,2024/2/1,10:26,42-10.40N,142-22.87E,123,3.275,
628,2024/2/1,10:27,42-10.22N,142-23.24E,123,3.268,
629,2024/2/1,10:28,42-10.04N,142-23.62E,123,3.249,
630,2024/2/1,10:29,42-09.86N,142-23.99E,122,3.25,
631,2024/2/1,10:30,42-09.67N,142-24.37E,124,3.236,
632,2024/2/1,10:31,42-09.50N,142-24.72E,122,3.218,
633,2024/2/1,10:32,42-09.32N,142-25.09E,123,3.205,
634,2024/2/1,10:33,42-09.14N,142-25.47E,123,3.182,
635,2024/2/1,10:34,42-08.96N,142-25.83E,123,3.177,
636,2024/2/1,10:35,42-08.78N,142-26.20E,124,3.175,
637,2024/2/1,10:36,42-08.60N,142-26.56E,122,3.184,
638,2024/2/1,10:37,42-08.42N,142-26.93E,124,3.216,
639,2024/2/1,10:38,42-08.24N,142-27.29E,122,3.245,
640,2024/2/1,10:39,42-08.06N,142-27.66E,125,3.258,
641,2024/2/1,10:40,42-07.87N,142-28.02E,123,3.25,
642,2024/2/1,10:41,42-07.71N,142-28.37E,122,3.229,
643,2024/2/1,10:42,42-07.53N,142-28.74E,125,3.152,
644,2024/2/1,10:43,42-07.34N,142-29.11E,124,2.989,
645,2024/2/1,10:44,42-07.17N,142-29.48E,121,2.898,
646,2024/2/1,10:45,42-07.01N,142-29.86E,120,2.871,
647,2024/2/1,10:46,42-06.84N,142-30.24E,120,2.883,
648,2024/2/1,10:47,42-06.67N,142-30.64E,120,2.889,
649,2024/2/1,10:48,42-06.50N,142-31.01E,120,2.877,
650,2024/2/1,10:49,42-06.34N,142-31.38E,121,2.829,
651,2024/2/1,10:50,42-06.17N,142-31.78E,118,2.753,
652,2024/2/1,10:51,42-06.02N,142-32.15E,118,2.691,
653,2024/2/1,10:52,42-05.87N,142-32.53E,118,2.647,
654,2024/2/1,10:53,42-05.69N,142-32.93E,120,2.622,
655,2024/2/1,10:54,42-05.52N,142-33.29E,123,2.582,
656,2024/2/1,10:55,42-05.34N,142-33.67E,121,2.597,
657,2024/2/1,10:56,42-05.18N,142-34.04E,120,2.6,
658,2024/2/1,10:57,42-05.02N,142-34.42E,118,2.603,
659,2024/2/1,10:58,42-04.87N,142-34.82E,119,2.607,
660,2024/2/1,10:59,42-04.71N,142-35.19E,119,2.563,
661,2024/2/1,11:00,42-04.55N,142-35.56E,121,2.557,
662,2024/2/1,11:01,42-04.38N,142-35.93E,121,2.613,
663,2024/2/1,11:02,42-04.20N,142-36.30E,122,2.632,
664,2024/2/1,11:03,42-04.03N,142-36.68E,120,2.667,
665,2024/2/1,11:04,42-03.88N,142-37.05E,119,2.696,
666,2024/2/1,11:05,42-03.72N,142-37.43E,120,2.719,
667,2024/2/1,11:06,42-03.55N,142-37.81E,119,2.739,
668,2024/2/1,11:07,42-03.40N,142-38.18E,119,2.779,
669,2024/2/1,11:08,42-03.23N,142-38.56E,120,2.824,
670,2024/2/1,11:09,42-03.06N,142-38.93E,121,2.883,
671,2024/2/1,11:10,42-02.89N,142-39.29E,121,2.951,
672,2024/2/1,11:11,42-02.73N,142-39.69E,118,3.035,
673,2024/2/1,11:12,42-02.58N,142-40.05E,120,3.164,
674,2024/2/1,11:13,42-02.42N,142-40.40E,118,3.245,
675,2024/2/1,11:14,42-02.27N,142-40.78E,118,3.402,
676,2024/2/1,11:15,42-02.12N,142-41.15E,119,3.513,
677,2024/2/1,11:16,42-01.95N,142-41.53E,120,3.627,
678,2024/2/1,11:17,42-01.78N,142-41.89E,123,3.85,
679,2024/2/1,11:18,42-01.61N,142-42.25E,123,4.204,
680,2024/2/1,11:19,42-01.44N,142-42.63E,121,4.492,
681,2024/2/1,11:20,42-01.29N,142-43.00E,118,4.648,
682,2024/2/1,11:21,42-01.14N,142-43.41E,116,4.7,
683,2024/2/1,11:22,42-00.99N,142-43.77E,121,4.873,
684,2024/2/1,11:23,42-00.80N,142-44.14E,124,4.971,
685,2024/2/1,11:24,42-00.60N,142-44.51E,128,5.148,
686,2024/2/1,11:25,42-00.42N,142-44.87E,121,5.255,
687,2024/2/1,11:26,42-00.27N,142-45.27E,113,5.353,
688,2024/2/1,11:27,42-00.14N,142-45.67E,115,5.451,
689,2024/2/1,11:28,41-59.99N,142-46.06E,118,5.501,
690,2024/2/1,11:29,41-59.81N,142-46.45E,124,5.659,
691,2024/2/1,11:30,41-59.63N,142-46.81E,124,5.806,
692,2024/2/1,11:31,41-59.43N,142-47.19E,123,5.923,
693,2024/2/1,11:32,41-59.26N,142-47.58E,119,6.002,
694,2024/2/1,11:33,41-59.09N,142-47.98E,118,6.086,
695,2024/2/1,11:34,41-58.95N,142-48.36E,116,3.945,
696,2024/2/1,11:35,41-58.79N,142-48.77E,117,3.229,
697,2024/2/1,11:36,41-58.64N,142-49.15E,118,2.858,
698,2024/2/1,11:37,41-58.48N,142-49.53E,121,2.667,
699,2024/2/1,11:38,41-58.30N,142-49.91E,123,2.525,
700,2024/2/1,11:39,41-58.11N,142-50.28E,123,2.452,
701,2024/2/1,11:40,41-57.94N,142-50.65E,122,2.417,
702,2024/2/1,11:41,41-57.77N,142-51.05E,118,2.384,
703,2024/2/1,11:42,41-57.62N,142-51.42E,118,2.382,
704,2024/2/1,11:43,41-57.46N,142-51.82E,119,2.382,
705,2024/2/1,11:44,41-57.28N,142-52.21E,122,2.366,
706,2024/2/1,11:45,41-57.10N,142-52.58E,122,2.375,
707,2024/2/1,11:46,41-56.93N,142-52.94E,121,2.364,
708,2024/2/1,11:47,41-56.76N,142-53.33E,119,2.363,
709,2024/2/1,11:48,41-56.62N,142-53.72E,115,2.342,
710,2024/2/1,11:49,41-56.47N,142-54.10E,117,2.326,
711,2024/2/1,11:50,41-56.30N,142-54.50E,120,2.331,
712,2024/2/1,11:51,41-56.14N,142-54.86E,121,2.333,
713,2024/2/1,11:52,41-55.96N,142-55.24E,122,2.332,
714,2024/2/1,11:53,41-55.78N,142-55.62E,120,2.357,
715,2024/2/1,11:54,41-55.63N,142-55.99E,119,2.356,
716,2024/2/1,11:55,41-55.45N,142-56.38E,121,2.36,
717,2024/2/1,11:56,41-55.28N,142-56.75E,121,2.353,
718,2024/2/1,11:57,41-55.10N,142-57.12E,122,2.363,
719,2024/2/1,11:58,41-54.94N,142-57.51E,117,2.348,
720,2024/2/1,11:59,41-54.79N,142-57.90E,116,2.339,
721,2024/2/1,12:00,41-54.64N,142-58.29E,116,2.322,
722,2024/2/1,12:01,41-54.48N,142-58.69E,119,2.313,
723,2024/2/1,12:02,41-54.32N,142-59.05E,121,2.316,
724,2024/2/1,12:03,41-54.13N,142-59.42E,123,2.304,
725,2024/2/1,12:04,41-53.94N,142-59.79E,124,2.294,
726,2024/2/1,12:05,41-53.77N,143-00.15E,119,2.288,
727,2024/2/1,12:06,41-53.62N,143-00.54E,117,2.285,
728,2024/2/1,12:07,41-53.48N,143-00.94E,116,2.28,
729,2024/2/1,12:08,41-53.32N,143-01.34E,119,2.272,
730,2024/2/1,12:09,41-53.14N,143-01.72E,122,2.267,
731,2024/2/1,12:10,41-52.97N,143-02.09E,122,2.263,
732,2024/2/1,12:11,41-52.79N,143-02.45E,121,2.272,
733,2024/2/1,12:12,41-52.61N,143-02.85E,119,2.278,
734,2024/2/1,12:13,41-52.48N,143-03.23E,113,2.306,
735,2024/2/1,12:14,41-52.35N,143-03.63E,112,2.325,
736,2024/2/1,12:15,41-52.22N,143-04.05E,113,2.341,
737,2024/2/1,12:16,41-52.09N,143-04.44E,113,2.35,
738,2024/2/1,12:17,41-51.95N,143-04.85E,114,2.342,
739,2024/2/1,12:18,41-51.81N,143-05.26E,115,2.329,
740,2024/2/1,12:19,41-51.68N,143-05.65E,114,2.305,
741,2024/2/1,12:20,41-51.53N,143-06.04E,117,2.306,
742,2024/2/1,12:21,41-51.39N,143-06.43E,115,2.317,
743,2024/2/1,12:22,41-51.24N,143-06.83E,116,2.326,
744,2024/2/1,12:23,41-51.09N,143-07.24E,116,2.343,
745,2024/2/1,12:24,41-50.96N,143-07.60E,115,2.375,
746,2024/2/1,12:25,41-50.81N,143-07.99E,116,2.432,
747,2024/2/1,12:26,41-50.67N,143-08.38E,115,2.457,
748,2024/2/1,12:27,41-50.53N,143-08.76E,116,2.521,
749,2024/2/1,12:28,41-50.44N,143-09.16E,97,2.579,
750,2024/2/1,12:29,41-50.44N,143-09.56E,88,2.63,
751,2024/2/1,12:30,41-50.44N,143-09.93E,88,2.671,
752,2024/2/1,12:31,41-50.46N,143-10.33E,83,2.725,
753,2024/2/1,12:32,41-50.50N,143-10.71E,82,2.763,
754,2024/2/1,12:33,41-50.53N,143-11.09E,82,2.809,
755,2024/2/1,12:34,41-50.56N,143-11.47E,83,2.843,
756,2024/2/1,12:35,41-50.60N,143-11.86E,81,2.872,
757,2024/2/1,12:36,41-50.64N,143-12.25E,85,2.902,
758,2024/2/1,12:37,41-50.67N,143-12.65E,84,2.936,
759,2024/2/1,12:38,41-50.70N,143-13.01E,82,2.958,
760,2024/2/1,12:39,41-50.74N,143-13.38E,81,2.974,
761,2024/2/1,12:40,41-50.78N,143-13.76E,81,2.984,
762,2024/2/1,12:41,41-50.82N,143-14.14E,82,2.995,
763,2024/2/1,12:42,41-50.86N,143-14.51E,81,3.004,
764,2024/2/1,12:43,41-50.90N,143-14.91E,83,2.586,
765,2024/2/1,12:44,41-50.93N,143-15.28E,81,2.229,
766,2024/2/1,12:45,41-50.96N,143-15.68E,83,2.157,
767,2024/2/1,12:46,41-51.00N,143-16.08E,81,2.134,
768,2024/2/1,12:47,41-51.03N,143-16.46E,83,2.151,
769,2024/2/1,12:48,41-51.07N,143-16.87E,83,2.186,
770,2024/2/1,12:49,41-51.11N,143-17.27E,81,2.215,
771,2024/2/1,12:50,41-51.15N,143-17.68E,80,2.212,
772,2024/2/1,12:51,41-51.20N,143-18.09E,81,2.27,
773,2024/2/1,12:52,41-51.24N,143-18.50E,82,2.295,
774,2024/2/1,12:53,41-51.28N,143-18.93E,83,2.27,
775,2024/2/1,12:54,41-51.31N,143-19.35E,85,2.264,
776,2024/2/1,12:55,41-51.33N,143-19.78E,83,2.213,
777,2024/2/1,12:56,41-51.37N,143-20.21E,83,2.213,
778,2024/2/1,12:57,41-51.42N,143-20.63E,79,2.227,
779,2024/2/1,12:58,41-51.48N,143-21.03E,77,2.243,
780,2024/2/1,12:59,41-51.55N,143-21.43E,74,2.248,
781,2024/2/1,13:00,41-51.64N,143-21.81E,70,2.267,
782,2024/2/1,13:01,41-51.75N,143-22.18E,65,2.264,
783,2024/2/1,13:02,41-51.88N,143-22.54E,63,2.274,
784,2024/2/1,13:03,41-52.05N,143-22.85E,46,2.263,
785,2024/2/1,13:04,41-52.28N,143-23.07E,32,2.25,
786,2024/2/1,13:05,41-52.52N,143-23.27E,33,2.241,
787,2024/2/1,13:06,41-52.78N,143-23.47E,29,2.239,
788,2024/2/1,13:07,41-53.03N,143-23.65E,28,2.232,
789,2024/2/1,13:08,41-53.29N,143-23.83E,26,2.231,
790,2024/2/1,13:09,41-53.55N,143-24.02E,28,2.232,
791,2024/2/1,13:10,41-53.80N,143-24.20E,29,2.223,
792,2024/2/1,13:11,41-54.07N,143-24.39E,28,2.221,
793,2024/2/1,13:12,41-54.32N,143-24.58E,30,2.22,
794,2024/2/1,13:13,41-54.59N,143-24.79E,30,2.218,
795,2024/2/1,13:14,41-54.85N,143-24.99E,30,2.218,
796,2024/2/1,13:15,41-55.12N,143-25.21E,30,2.218,
797,2024/2/1,13:16,41-55.38N,143-25.42E,30,2.208,
798,2024/2/1,13:17,41-55.65N,143-25.63E,30,2.214,
799,2024/2/1,13:18,41-55.93N,143-25.85E,31,2.227,
800,2024/2/1,13:19,41-56.18N,143-26.06E,31,2.238,
801,2024/2/1,13:20,41-56.45N,143-26.28E,32,2.236,
802,2024/2/1,13:21,41-56.73N,143-26.52E,31,2.225,
803,2024/2/1,13:22,41-57.00N,143-26.74E,32,2.223,
804,2024/2/1,13:23,41-57.28N,143-26.98E,31,2.166,
805,2024/2/1,13:24,41-57.57N,143-27.21E,32,2.132,
806,2024/2/1,13:25,41-57.84N,143-27.44E,32,2.137,
807,2024/2/1,13:26,41-58.12N,143-27.69E,33,2.168,
808,2024/2/1,13:27,41-58.40N,143-27.94E,34,2.217,
809,2024/2/1,13:28,41-58.67N,143-28.19E,35,2.251,
810,2024/2/1,13:29,41-58.93N,143-28.46E,36,2.215,
811,2024/2/1,13:30,41-59.20N,143-28.72E,36,2.194,
812,2024/2/1,13:31,41-59.47N,143-28.98E,36,2.22,
813,2024/2/1,13:32,41-59.73N,143-29.25E,36,2.213,
814,2024/2/1,13:33,42-00.00N,143-29.52E,36,2.21,
815,2024/2/1,13:34,42-00.26N,143-29.78E,37,2.2,
816,2024/2/1,13:35,42-00.52N,143-30.05E,36,2.183,
817,2024/2/1,13:36,42-00.80N,143-30.32E,36,2.191,
818,2024/2/1,13:37,42-01.07N,143-30.59E,36,2.16,
819,2024/2/1,13:38,42-01.34N,143-30.86E,37,2.13,
820,2024/2/1,13:39,42-01.61N,143-31.13E,36,2.107,
821,2024/2/1,13:40,42-01.88N,143-31.40E,37,2.098,
822,2024/2/1,13:41,42-02.16N,143-31.67E,34,2.087,
823,2024/2/1,13:42,42-02.43N,143-31.92E,34,2.064,
824,2024/2/1,13:43,42-02.71N,143-32.17E,32,2.056,
825,2024/2/1,13:44,42-03.00N,143-32.42E,32,2.006,
826,2024/2/1,13:45,42-03.28N,143-32.65E,32,1.966,
827,2024/2/1,13:46,42-03.57N,143-32.90E,32,1.925,
828,2024/2/1,13:47,42-03.85N,143-33.14E,32,1.883,
829,2024/2/1,13:48,42-04.14N,143-33.38E,31,1.861,
830,2024/2/1,13:49,42-04.43N,143-33.61E,31,1.855,
831,2024/2/1,13:50,42-04.72N,143-33.85E,31,1.861,
832,2024/2/1,13:51,42-05.01N,143-34.10E,31,1.883,
833,2024/2/1,13:52,42-05.31N,143-34.34E,32,1.901,
834,2024/2/1,13:53,42-05.59N,143-34.58E,32,1.92,
835,2024/2/1,13:54,42-05.88N,143-34.82E,31,1.914,
836,2024/2/1,13:55,42-06.17N,143-35.06E,31,1.928,
837,2024/2/1,13:56,42-06.46N,143-35.31E,31,1.971,
838,2024/2/1,13:57,42-06.76N,143-35.55E,31,1.994,
839,2024/2/1,13:58,42-07.06N,143-35.80E,31,2.015,
840,2024/2/1,13:59,42-07.33N,143-36.02E,31,2.034,
841,2024/2/1,14:00,42-07.62N,143-36.27E,31,2.039,
842,2024/2/1,14:01,42-07.92N,143-36.51E,31,2.052,
843,2024/2/1,14:02,42-08.21N,143-36.75E,31,2.06,
844,2024/2/1,14:03,42-08.50N,143-36.99E,31,2.087,
845,2024/2/1,14:04,42-08.79N,143-37.23E,31,2.097,
846,2024/2/1,14:05,42-09.09N,143-37.47E,30,2.11,
847,2024/2/1,14:06,42-09.38N,143-37.73E,34,2.105,
848,2024/2/1,14:07,42-09.65N,143-37.98E,33,2.078,
849,2024/2/1,14:08,42-09.94N,143-38.23E,32,2.053,
850,2024/2/1,14:09,42-10.25N,143-38.50E,33,2.036,
851,2024/2/1,14:10,42-10.53N,143-38.74E,33,2.003,
852,2024/2/1,14:11,42-10.83N,143-39.01E,33,1.977,
853,2024/2/1,14:12,42-11.11N,143-39.25E,32,1.972,
854,2024/2/1,14:13,42-11.40N,143-39.50E,33,1.982,
855,2024/2/1,14:14,42-11.69N,143-39.75E,32,1.996,
856,2024/2/1,14:15,42-11.97N,143-40.00E,33,1.999,
857,2024/2/1,14:16,42-12.27N,143-40.26E,32,2.009,
858,2024/2/1,14:17,42-12.56N,143-40.50E,31,2.011,
859,2024/2/1,14:18,42-12.85N,143-40.73E,30,2.18,
860,2024/2/1,14:19,42-13.14N,143-40.97E,31,2.234,
861,2024/2/1,14:20,42-13.43N,143-41.20E,31,2.258,
862,2024/2/1,14:21,42-13.72N,143-41.45E,31,2.282,
863,2024/2/1,14:22,42-14.01N,143-41.68E,31,2.288,
864,2024/2/1,14:23,42-14.30N,143-41.93E,31,2.298,
865,2024/2/1,14:24,42-14.59N,143-42.16E,31,2.312,
866,2024/2/1,14:25,42-14.88N,143-42.40E,31,2.241,
867,2024/2/1,14:26,42-15.18N,143-42.65E,31,2.221,
868,2024/2/1,14:27,42-15.46N,143-42.89E,31,2.231,
869,2024/2/1,14:28,42-15.75N,143-43.13E,32,2.239,
870,2024/2/1,14:29,42-16.05N,143-43.38E,31,2.257,
871,2024/2/1,14:30,42-16.34N,143-43.62E,31,2.244,
872,2024/2/1,14:31,42-16.63N,143-43.87E,30,2.242,
873,2024/2/1,14:32,42-16.94N,143-44.10E,29,2.201,
874,2024/2/1,14:33,42-17.22N,143-44.32E,29,2.159,
875,2024/2/1,14:34,42-17.53N,143-44.55E,29,2.104,
876,2024/2/1,14:35,42-17.82N,143-44.76E,29,2.051,
877,2024/2/1,14:36,42-18.12N,143-44.99E,29,2.02,
878,2024/2/1,14:37,42-18.41N,143-45.20E,27,2.009,
879,2024/2/1,14:38,42-18.71N,143-45.41E,27,2.035,
880,2024/2/1,14:39,42-19.01N,143-45.62E,27,2.018,
881,2024/2/1,14:40,42-19.31N,143-45.83E,28,1.98,
882,2024/2/1,14:41,42-19.61N,143-46.04E,27,1.931,
883,2024/2/1,14:42,42-19.90N,143-46.25E,27,1.903,
884,2024/2/1,14:43,42-20.21N,143-46.46E,27,1.849,
885,2024/2/1,14:44,42-20.51N,143-46.67E,27,1.885,
886,2024/2/1,14:45,42-20.80N,143-46.88E,27,1.899,
887,2024/2/1,14:46,42-21.11N,143-47.10E,27,1.915,
888,2024/2/1,14:47,42-21.40N,143-47.30E,28,1.941,
889,2024/2/1,14:48,42-21.69N,143-47.51E,27,1.969,
890,2024/2/1,14:49,42-21.99N,143-47.73E,28,1.998,
891,2024/2/1,14:50,42-22.28N,143-47.94E,28,2.007,
892,2024/2/1,14:51,42-22.58N,143-48.15E,27,2.029,
893,2024/2/1,14:52,42-22.88N,143-48.37E,28,2.044,
894,2024/2/1,14:53,42-23.17N,143-48.58E,28,2.052,
895,2024/2/1,14:54,42-23.47N,143-48.80E,28,2.064,
896,2024/2/1,14:55,42-23.77N,143-49.02E,28,2.062,
897,2024/2/1,14:56,42-24.05N,143-49.23E,28,2.06,
898,2024/2/1,14:57,42-24.34N,143-49.44E,28,2.013,
899,2024/2/1,14:58,42-24.64N,143-49.66E,28,1.794,
900,2024/2/1,14:59,42-24.93N,143-49.88E,28,1.768,
901,2024/2/1,15:00,42-25.22N,143-50.09E,28,1.756,
902,2024/2/1,15:01,42-25.53N,143-50.32E,28,1.75,
903,2024/2/1,15:02,42-25.82N,143-50.53E,28,1.737,
904,2024/2/1,15:03,42-26.10N,143-50.74E,29,1.721,
905,2024/2/1,15:04,42-26.40N,143-50.96E,29,1.718,
906,2024/2/1,15:05,42-26.67N,143-51.17E,29,1.717,
907,2024/2/1,15:06,42-26.97N,143-51.39E,28,1.711,
908,2024/2/1,15:07,42-27.25N,143-51.60E,29,1.714,
909,2024/2/1,15:08,42-27.53N,143-51.82E,29,1.714,
910,2024/2/1,15:09,42-27.83N,143-52.03E,28,1.718,
911,2024/2/1,15:10,42-28.11N,143-52.24E,28,1.717,
912,2024/2/1,15:11,42-28.40N,143-52.45E,28,1.718,
913,2024/2/1,15:12,42-28.68N,143-52.66E,28,1.728,
914,2024/2/1,15:13,42-28.97N,143-52.87E,28,1.71,
915,2024/2/1,15:14,42-29.26N,143-53.09E,29,1.7,
916,2024/2/1,15:15,42-29.56N,143-53.31E,29,1.693,
917,2024/2/1,15:16,42-29.83N,143-53.52E,29,1.697,
918,2024/2/1,15:17,42-30.11N,143-53.73E,29,1.694,
919,2024/2/1,15:18,42-30.40N,143-53.94E,28,1.695,
920,2024/2/1,15:19,42-30.70N,143-54.16E,28,1.701,
921,2024/2/1,15:20,42-30.98N,143-54.37E,28,1.69,
922,2024/2/1,15:21,42-31.29N,143-54.60E,29,1.7,
923,2024/2/1,15:22,42-31.56N,143-54.80E,28,1.702,
924,2024/2/1,15:23,42-31.85N,143-55.02E,28,1.709,
925,2024/2/1,15:24,42-32.16N,143-55.24E,28,1.698,
926,2024/2/1,15:25,42-32.44N,143-55.45E,29,1.703,
927,2024/2/1,15:26,42-32.73N,143-55.66E,28,1.698,
928,2024/2/1,15:27,42-33.02N,143-55.88E,28,1.707,
929,2024/2/1,15:28,42-33.32N,143-56.09E,28,1.701,
930,2024/2/1,15:29,42-33.61N,143-56.31E,29,1.703,
931,2024/2/1,15:30,42-33.91N,143-56.53E,29,1.684,
932,2024/2/1,15:31,42-34.20N,143-56.76E,28,1.673,
933,2024/2/1,15:32,42-34.48N,143-56.96E,28,1.675,
934,2024/2/1,15:33,42-34.78N,143-57.18E,28,1.682,
935,2024/2/1,15:34,42-35.08N,143-57.40E,28,1.69,
936,2024/2/1,15:35,42-35.37N,143-57.62E,29,1.681,
937,2024/2/1,15:36,42-35.67N,143-57.84E,28,1.67,
938,2024/2/1,15:37,42-35.95N,143-58.05E,28,1.659,
939,2024/2/1,15:38,42-36.25N,143-58.27E,29,1.654,
940,2024/2/1,15:39,42-36.56N,143-58.51E,29,1.657,
941,2024/2/1,15:40,42-36.83N,143-58.71E,29,1.635,
942,2024/2/1,15:41,42-37.13N,143-58.94E,28,1.628,
943,2024/2/1,15:42,42-37.42N,143-59.16E,29,1.632,
944,2024/2/1,15:43,42-37.76N,143-59.42E,29,1.629,
945,2024/2/1,15:44,42-38.05N,143-59.63E,29,1.64,
946,2024/2/1,15:45,42-38.29N,143-59.82E,29,1.625,
947,2024/2/1,15:46,42-38.60N,144-00.05E,29,1.628,
948,2024/2/1,15:47,42-38.91N,144-00.29E,29,1.624,
949,2024/2/1,15:48,42-39.16N,144-00.48E,29,1.624,
950,2024/2/1,15:49,42-39.45N,144-00.70E,29,1.62,
951,2024/2/1,15:50,42-39.74N,144-00.92E,29,1.623,
952,2024/2/1,15:51,42-40.07N,144-01.17E,29,1.644,
953,2024/2/1,15:52,42-40.31N,144-01.35E,29,1.651,
954,2024/2/1,15:53,42-40.59N,144-01.56E,29,1.651,
955,2024/2/1,15:54,42-40.88N,144-01.78E,28,1.673,
956,2024/2/1,15:55,42-41.16N,144-01.99E,28,1.669,
957,2024/2/1,15:56,42-41.46N,144-02.20E,28,1.676,
958,2024/2/1,15:57,42-41.75N,144-02.41E,28,1.672,
959,2024/2/1,15:58,42-42.04N,144-02.62E,28,1.659,